Location: Unspecified
(51.0950°N, 12.9690°E)
Time: 07:07:36
(UTC+00:00)

ATLAS 3B R/B - Visible Passes

Search period start: 23 September 2023 00:00
Search period end: 03 October 2023 00:00
Orbit: 953 x 1241 km, 63.8° (Epoch: 22 September)

Date Brightness Start Highest point End Pass type
(mag) Time Alt. Az. Time Alt. Az. Time Alt. Az.
23 Sep 4.4 00:37:17 10° NW 00:43:55 33° N 00:50:47 10° ENE visible
23 Sep 3.6 02:28:46 10° NW 02:36:17 56° NE 02:43:57 10° ESE visible
23 Sep 3.2 04:19:44 10° NW 04:27:13 56° WSW 04:34:44 10° SSE visible
23 Sep 3.8 18:17:13 10° SSE 18:22:10 21° ESE 18:27:20 10° ENE visible
23 Sep 2.6 20:04:49 10° SW 20:11:47 80° SE 20:19:18 10° NE visible
23 Sep 3.8 21:56:27 10° W 22:03:13 42° NNW 22:10:26 10° NE visible
23 Sep 4.4 23:49:24 10° WNW 23:55:54 31° N 00:02:39 10° ENE visible
24 Sep 4.0 01:41:17 10° NW 01:48:32 45° NNE 01:55:58 10° E visible
24 Sep 3.0 03:32:15 10° NW 03:39:58 78° SW 03:47:44 10° SSE visible
24 Sep 4.2 17:32:44 10° SE 17:35:29 13° E 17:38:17 10° ENE visible
24 Sep 2.8 19:17:50 10° SSW 19:24:33 56° ESE 19:31:47 10° NE visible
24 Sep 3.5 21:08:32 10° WSW 21:15:28 53° NNW 21:22:53 10° NE visible
24 Sep 4.4 23:01:24 10° WNW 23:07:53 32° N 23:14:39 10° NE visible
25 Sep 4.2 00:53:43 10° NW 01:00:41 38° NNE 01:07:50 10° E visible
25 Sep 3.1 02:44:49 10° NW 02:52:33 79° NE 03:00:23 10° SE visible
25 Sep 3.2 18:31:16 10° S 18:37:29 37° ESE 18:44:08 10° NE visible
25 Sep 3.0 20:20:50 10° SW 20:27:51 69° NW 20:35:25 10° NE visible
25 Sep 4.2 22:13:19 10° W 22:19:53 35° NNW 22:26:48 10° NE visible
26 Sep 4.4 00:06:02 10° NW 00:12:44 33° NNE 00:19:39 10° ENE visible
26 Sep 3.4 01:57:24 10° NW 02:04:59 61° NE 02:12:42 10° ESE visible
26 Sep 3.2 03:48:24 10° NW 03:55:46 50° WSW 04:03:10 10° SSE visible
26 Sep 3.7 17:45:15 10° SSE 17:50:35 24° ESE 17:56:13 10° ENE visible
26 Sep 2.7 19:33:23 10° SW 19:40:23 88° SE 19:47:57 10° NE visible
26 Sep 4.0 21:25:15 10° W 21:31:59 40° NNW 21:39:07 10° NE visible
26 Sep 4.4 23:18:11 10° WNW 23:24:43 31° N 23:31:30 10° ENE visible
27 Sep 3.8 01:09:56 10° NW 01:17:17 48° NNE 01:24:47 10° ESE visible
27 Sep 2.9 03:00:53 10° NW 03:08:34 71° SW 03:16:17 10° SSE visible
27 Sep 2.8 18:46:17 10° SSW 18:53:06 63° SE 19:00:27 10° NE visible
27 Sep 3.6 20:37:18 10° WSW 20:44:11 49° NNW 20:51:33 10° NE visible
27 Sep 4.4 22:30:13 10° WNW 22:36:41 31° N 22:43:27 10° ENE visible
28 Sep 4.1 00:22:25 10° NW 00:29:28 39° NNE 00:36:42 10° E visible
28 Sep 3.0 02:13:27 10° NW 02:21:12 86° NE 02:29:02 10° SE visible
28 Sep 3.7 04:04:51 10° NW 04:11:19 30° WSW 04:17:47 10° S visible
28 Sep 3.1 17:59:34 10° S 18:06:00 42° ESE 18:12:51 10° NE visible
28 Sep 3.2 19:49:31 10° WSW 19:56:31 64° NW 20:04:04 10° NE visible
28 Sep 4.3 21:42:09 10° WNW 21:48:41 34° NNW 21:55:33 10° NE visible
28 Sep 4.3 23:34:45 10° NW 23:41:32 34° NNE 23:48:32 10° ENE visible
29 Sep 3.3 01:26:02 10° NW 01:33:41 66° NE 01:41:27 10° ESE visible
29 Sep 3.2 03:17:06 10° NW 03:24:18 44° WSW 03:31:32 10° S visible
29 Sep 3.6 17:13:22 10° SSE 17:19:03 28° ESE 17:25:03 10° ENE visible
29 Sep 2.8 19:01:59 10° SW 19:09:01 85° NW 19:16:36 10° NE visible
29 Sep 4.1 20:54:04 10° W 21:00:45 38° NNW 21:07:49 10° NE visible
29 Sep 4.4 22:46:58 10° NW 22:53:32 32° N 23:00:21 10° ENE visible
30 Sep 3.6 00:38:35 10° NW 00:46:01 51° NNE 00:53:36 10° ESE visible
30 Sep 2.9 02:29:32 10° NW 02:37:09 64° SW 02:44:47 10° SSE visible
30 Sep 4.2 04:22:03 10° WNW 04:26:34 17° WSW 04:31:07 10° SW visible
30 Sep 2.8 18:14:46 10° SSW 18:21:40 70° SE 18:29:07 10° NE visible
30 Sep 3.8 20:06:04 10° WSW 20:12:55 46° NNW 20:20:13 10° NE visible
30 Sep 4.4 21:59:01 10° WNW 22:05:31 31° N 22:12:16 10° ENE visible
30 Sep 4.0 23:51:05 10° NW 23:58:14 42° NNE 00:05:33 10° E visible
01 Oct 2.8 01:42:05 10° NW 01:49:49 87° SW 01:57:39 10° SE visible
01 Oct 3.8 03:33:39 10° WNW 03:39:47 26° WSW 03:45:55 10° SSW visible
01 Oct 3.1 17:27:56 10° SSW 17:34:30 48° ESE 17:41:33 10° NE visible
01 Oct 3.4 19:18:13 10° WSW 19:25:12 58° NW 19:32:42 10° NE visible
01 Oct 4.3 21:10:59 10° WNW 21:17:30 33° N 21:24:19 10° NE visible
01 Oct 4.2 23:03:28 10° NW 23:10:20 36° NNE 23:17:23 10° E visible
02 Oct 3.1 00:54:39 10° NW 01:02:21 71° NE 01:10:09 10° SE visible
02 Oct 3.3 02:45:48 10° NW 02:52:50 39° WSW 02:59:52 10° S visible
02 Oct 3.0 18:30:37 10° SW 18:37:38 77° NW 18:45:14 10° NE visible
02 Oct 4.1 20:22:53 10° W 20:29:32 36° NNW 20:36:31 10° NE visible
02 Oct 4.3 22:15:43 10° NW 22:22:21 32° N 22:25:41 24° NE visible
